ARG2557 RJFF-RJCC

Flight info

Callsign ARG2557
Flight time 1h 52m
Altitude 35000
Route BUTUR Y453 MARCO Y141 SAMON Y14 GOLDO Y19 MRE Y13 SIRAO Y139 NAVER
Aircraft B737/M-SDE2E3FGHIRWXY/LB1

Departure

Time 2026-05-04 20:45
Airport Fukuoka Airport (RJFF)

Arrival

Time 2026-05-04 22:37
Airport New Chitose Airport (RJCC)
Time Latitude Longitude Altitude Speed Heading
2026-05-04 14:30 33.58489 130.44551 32 ft 0 kts 241°
2026-05-04 20:40 33.58492 130.44557 34 ft 4 kts 241°
2026-05-04 20:40 33.58505 130.44586 34 ft 4 kts 242°
2026-05-04 20:40 33.58517 130.44614 34 ft 4 kts 244°
2026-05-04 20:40 33.58529 130.44643 35 ft 4 kts 246°
2026-05-04 20:41 33.58539 130.44673 35 ft 4 kts 252°
2026-05-04 20:41 33.58544 130.44704 36 ft 4 kts 282°
2026-05-04 20:41 33.58539 130.44718 36 ft 1 kts 331°
2026-05-04 20:43 33.58556 130.44706 36 ft 9 kts 331°
2026-05-04 20:43 33.58653 130.44642 36 ft 23 kts 332°
2026-05-04 20:43 33.58837 130.44524 31 ft 37 kts 332°
2026-05-04 20:43 33.59073 130.44358 28 ft 41 kts 331°
2026-05-04 20:44 33.59315 130.44204 28 ft 38 kts 331°
2026-05-04 20:44 33.59492 130.44088 28 ft 22 kts 331°
2026-05-04 20:44 33.59550 130.44142 27 ft 14 kts 115°
2026-05-04 20:44 33.59430 130.44247 28 ft 28 kts 150°
2026-05-04 20:45 33.59162 130.44429 27 ft 79 kts 150°
2026-05-04 20:45 33.58432 130.44908 53 ft 155 kts 152°
2026-05-04 20:45 33.57399 130.45571 734 ft 176 kts 153°
2026-05-04 20:45 33.56302 130.46227 1920 ft 169 kts 156°
2026-05-04 20:46 33.55228 130.46849 2855 ft 184 kts 151°
2026-05-04 20:46 33.53996 130.47700 3178 ft 223 kts 150°
2026-05-04 20:46 33.52562 130.48685 3537 ft 256 kts 151°
2026-05-04 20:46 33.50972 130.49750 4493 ft 265 kts 151°
2026-05-04 20:47 33.49342 130.50818 5562 ft 269 kts 152°
2026-05-04 20:47 33.47667 130.51892 6567 ft 277 kts 153°
2026-05-04 20:47 33.45947 130.52982 7571 ft 283 kts 152°
2026-05-04 20:47 33.44786 130.53713 8245 ft 285 kts 152°
2026-05-04 20:48 33.43008 130.54826 9237 ft 290 kts 152°
2026-05-04 20:48 33.41197 130.55956 10168 ft 296 kts 152°
2026-05-04 20:48 33.39308 130.57131 10721 ft 317 kts 153°
2026-05-04 20:48 33.37307 130.58373 11420 ft 329 kts 153°
2026-05-04 20:49 33.35253 130.59647 12247 ft 336 kts 154°
2026-05-04 20:49 33.33165 130.60940 13149 ft 341 kts 154°
2026-05-04 20:49 33.31045 130.62253 14077 ft 344 kts 154°
2026-05-04 20:49 33.29085 130.63936 14980 ft 353 kts 134°
2026-05-04 20:50 33.27776 130.66424 15884 ft 359 kts 110°
2026-05-04 20:50 33.27375 130.69365 16753 ft 363 kts 86°
2026-05-04 20:50 33.27863 130.72324 17593 ft 366 kts 72°
2026-05-04 20:50 33.28627 130.75246 18397 ft 371 kts 70°
2026-05-04 20:51 33.29415 130.78214 19124 ft 380 kts 71°
2026-05-04 20:51 33.30198 130.81278 19753 ft 390 kts 72°
2026-05-04 20:51 33.31132 130.84297 20442 ft 395 kts 60°
2026-05-04 20:51 33.32529 130.87147 21140 ft 400 kts 56°
2026-05-04 20:52 33.34036 130.89984 21759 ft 408 kts 54°
2026-05-04 20:52 33.35595 130.92864 22363 ft 416 kts 54°
2026-05-04 20:52 33.37178 130.95802 22978 ft 424 kts 55°
2026-05-04 20:52 33.38773 130.98802 23638 ft 429 kts 55°
2026-05-04 20:53 33.40381 131.01855 24184 ft 438 kts 55°
2026-05-04 20:53 33.42009 131.04970 24716 ft 445 kts 56°
2026-05-04 20:53 33.43661 131.08146 25238 ft 453 kts 56°
2026-05-04 20:53 33.45332 131.11373 25818 ft 459 kts 56°
2026-05-04 20:54 33.47024 131.14648 26315 ft 466 kts 56°
2026-05-04 20:54 33.48742 131.17975 26804 ft 473 kts 56°
2026-05-04 20:54 33.50487 131.21355 27268 ft 480 kts 56°
2026-05-04 20:54 33.52234 131.24740 27729 ft 487 kts 57°
2026-05-04 20:55 33.54026 131.28213 28197 ft 492 kts 57°
2026-05-04 20:55 33.55838 131.31735 28654 ft 499 kts 57°
2026-05-04 20:55 33.57671 131.35299 29067 ft 505 kts 57°
2026-05-04 20:55 33.59528 131.38912 29455 ft 511 kts 57°
2026-05-04 20:56 33.61407 131.42569 29833 ft 517 kts 57°
2026-05-04 20:56 33.63303 131.46267 30177 ft 524 kts 57°
2026-05-04 20:56 33.65224 131.50011 30601 ft 529 kts 57°
2026-05-04 20:56 33.67151 131.53776 31107 ft 530 kts 57°
2026-05-04 20:57 33.69083 131.57555 31516 ft 533 kts 57°
2026-05-04 20:57 33.71050 131.61362 31780 ft 539 kts 55°
2026-05-04 20:57 33.73284 131.64987 32115 ft 541 kts 47°
2026-05-04 20:57 33.75689 131.68458 32522 ft 541 kts 46°
2026-05-04 20:58 33.78145 131.71903 32904 ft 543 kts 46°
2026-05-04 20:58 33.80583 131.75310 33218 ft 546 kts 46°
2026-05-04 20:58 33.83062 131.78801 33505 ft 550 kts 46°
2026-05-04 20:58 33.85536 131.82323 33813 ft 552 kts 46°
2026-05-04 20:59 33.88000 131.85863 34172 ft 553 kts 47°
2026-05-04 20:59 33.90457 131.89413 34596 ft 551 kts 47°
2026-05-04 20:59 33.92908 131.92962 34978 ft 551 kts 47°
2026-05-04 20:59 33.95361 131.96516 35200 ft 555 kts 47°
2026-05-04 21:00 34.00333 132.03715 35182 ft 558 kts 47°
2026-05-04 21:00 34.05246 132.10845 35179 ft 550 kts 46°
2026-05-04 21:01 34.10421 132.17594 35177 ft 544 kts 36°
2026-05-04 21:01 34.16123 132.23508 35194 ft 542 kts 34°
2026-05-04 21:02 34.21879 132.29426 35188 ft 544 kts 35°
2026-05-04 21:02 34.27584 132.35447 35187 ft 545 kts 36°
2026-05-04 21:03 34.33284 132.41500 35177 ft 545 kts 36°
2026-05-04 21:03 34.39004 132.47556 35179 ft 546 kts 36°
2026-05-04 21:04 34.44686 132.53575 35169 ft 547 kts 36°
2026-05-04 21:04 34.50423 132.59667 35174 ft 548 kts 36°
2026-05-04 21:05 34.56136 132.65753 35149 ft 539 kts 36°
2026-05-04 21:05 34.61714 132.71710 35161 ft 533 kts 36°
2026-05-04 21:06 34.67291 132.77663 35160 ft 535 kts 36°
2026-05-04 21:06 34.72842 132.83602 35169 ft 535 kts 36°
2026-05-04 21:07 34.78429 132.89595 35163 ft 537 kts 36°
2026-05-04 21:07 34.84031 132.95617 35159 ft 537 kts 36°
2026-05-04 21:08 34.89638 133.01653 35157 ft 537 kts 36°
2026-05-04 21:08 34.95225 133.07680 35155 ft 538 kts 36°
2026-05-04 21:09 35.00813 133.13720 35156 ft 537 kts 36°
2026-05-04 21:09 35.06398 133.19771 35153 ft 536 kts 36°
2026-05-04 21:10 35.11947 133.25798 35143 ft 528 kts 36°
2026-05-04 21:10 35.14655 133.28752 35133 ft 514 kts 36°
2026-05-04 21:10 35.17309 133.31647 35147 ft 509 kts 36°
2026-05-04 21:11 35.22573 133.37380 35157 ft 506 kts 36°
2026-05-04 21:11 35.27836 133.43109 35168 ft 506 kts 35°
2026-05-04 21:12 35.33095 133.48854 35169 ft 506 kts 36°
2026-05-04 21:12 35.38353 133.54614 35152 ft 507 kts 36°
2026-05-04 21:13 35.43555 133.60328 35140 ft 504 kts 36°
2026-05-04 21:13 35.48757 133.66049 35160 ft 502 kts 36°
2026-05-04 21:14 35.53970 133.71788 35158 ft 502 kts 36°
2026-05-04 21:14 35.59153 133.77508 35167 ft 502 kts 36°
2026-05-04 21:15 35.64365 133.83268 35166 ft 502 kts 36°
2026-05-04 21:15 35.69523 133.88979 35167 ft 502 kts 36°
2026-05-04 21:16 35.74714 133.94738 35169 ft 502 kts 36°
2026-05-04 21:16 35.79899 134.00501 35164 ft 501 kts 36°
2026-05-04 21:17 35.85086 134.06278 35164 ft 501 kts 36°
2026-05-04 21:17 35.90229 134.12016 35168 ft 501 kts 36°
2026-05-04 21:18 35.95400 134.17796 35162 ft 501 kts 36°
2026-05-04 21:18 36.00533 134.23543 35158 ft 501 kts 36°
2026-05-04 21:19 36.05694 134.29334 35160 ft 501 kts 36°
2026-05-04 21:19 36.10856 134.35136 35156 ft 501 kts 36°
2026-05-04 21:20 36.16012 134.40942 35157 ft 501 kts 36°
2026-05-04 21:20 36.21189 134.46782 35155 ft 501 kts 36°
2026-05-04 21:21 36.25885 134.53174 35141 ft 511 kts 53°
2026-05-04 21:21 36.29605 134.60675 35154 ft 512 kts 56°
2026-05-04 21:22 36.33223 134.68270 35155 ft 511 kts 56°
2026-05-04 21:22 36.36878 134.75830 35157 ft 510 kts 55°
2026-05-04 21:23 36.40561 134.83355 35164 ft 510 kts 55°
2026-05-04 21:23 36.44260 134.90899 35159 ft 511 kts 55°
2026-05-04 21:24 36.47936 134.98421 35159 ft 512 kts 55°
2026-05-04 21:24 36.51630 135.06003 35146 ft 513 kts 55°
2026-05-04 21:25 36.55330 135.13619 35150 ft 514 kts 56°
2026-05-04 21:25 36.59025 135.21241 35150 ft 514 kts 56°
2026-05-04 21:26 36.62720 135.28879 35144 ft 515 kts 56°
2026-05-04 21:26 36.66393 135.36488 35148 ft 516 kts 56°
2026-05-04 21:27 36.70089 135.44163 35150 ft 517 kts 56°
2026-05-04 21:27 36.73785 135.51857 35149 ft 517 kts 56°
2026-05-04 21:28 36.77484 135.59574 35145 ft 517 kts 56°
2026-05-04 21:28 36.81174 135.67288 35151 ft 517 kts 56°
2026-05-04 21:29 36.84829 135.74951 35147 ft 516 kts 56°
2026-05-04 21:29 36.88499 135.82660 35146 ft 516 kts 56°
2026-05-04 21:30 36.92152 135.90351 35152 ft 515 kts 56°
2026-05-04 21:30 36.95808 135.98068 35146 ft 514 kts 56°
2026-05-04 21:31 37.01270 136.09625 35149 ft 516 kts 56°
2026-05-04 21:32 37.04908 136.17348 35156 ft 519 kts 56°
2026-05-04 21:32 37.08579 136.25157 35153 ft 520 kts 56°
2026-05-04 21:33 37.12247 136.32981 35141 ft 521 kts 56°
2026-05-04 21:33 37.15913 136.40824 35138 ft 520 kts 57°
2026-05-04 21:34 37.19565 136.48653 35132 ft 518 kts 57°
2026-05-04 21:34 37.23173 136.56405 35138 ft 517 kts 57°
2026-05-04 21:35 37.26793 136.64200 35135 ft 516 kts 57°
2026-05-04 21:35 37.29819 136.70732 35140 ft 516 kts 57°
2026-05-04 21:36 37.33408 136.78491 35132 ft 517 kts 57°
2026-05-04 21:36 37.37017 136.86317 35129 ft 517 kts 57°
2026-05-04 21:37 37.40623 136.94154 35137 ft 518 kts 57°
2026-05-04 21:37 37.44233 137.02016 35128 ft 519 kts 57°
2026-05-04 21:38 37.47840 137.09892 35123 ft 520 kts 57°
2026-05-04 21:38 37.51428 137.17747 35124 ft 521 kts 57°
2026-05-04 21:39 37.55047 137.25688 35133 ft 521 kts 57°
2026-05-04 21:39 37.58633 137.33578 35127 ft 521 kts 58°
2026-05-04 21:40 37.62234 137.41519 35131 ft 521 kts 58°
2026-05-04 21:40 37.65832 137.49473 35130 ft 521 kts 58°
2026-05-04 21:41 37.69425 137.57433 35129 ft 521 kts 58°
2026-05-04 21:41 37.72991 137.65354 35127 ft 521 kts 58°
2026-05-04 21:42 37.76564 137.73308 35134 ft 520 kts 58°
2026-05-04 21:42 37.80131 137.81277 35128 ft 519 kts 58°
2026-05-04 21:43 37.83690 137.89241 35131 ft 518 kts 58°
2026-05-04 21:43 37.87233 137.97190 35131 ft 518 kts 58°
2026-05-04 21:44 37.90768 138.05140 35127 ft 518 kts 58°
2026-05-04 21:44 37.94294 138.13088 35130 ft 518 kts 58°
2026-05-04 21:45 37.97797 138.21007 35125 ft 518 kts 58°
2026-05-04 21:45 38.01323 138.28996 35120 ft 518 kts 58°
2026-05-04 21:46 38.04937 138.36898 35121 ft 516 kts 50°
2026-05-04 21:46 38.09733 138.43524 35133 ft 503 kts 32°
2026-05-04 21:47 38.15410 138.48440 35135 ft 496 kts 24°
2026-05-04 21:47 38.21292 138.53123 35135 ft 499 kts 24°
2026-05-04 21:48 38.27167 138.57860 35133 ft 501 kts 25°
2026-05-04 21:48 38.33004 138.62645 35124 ft 502 kts 25°
2026-05-04 21:49 38.38877 138.67495 35125 ft 501 kts 25°
2026-05-04 21:49 38.44722 138.72332 35126 ft 500 kts 25°
2026-05-04 21:50 38.50519 138.77133 35120 ft 499 kts 25°
2026-05-04 21:50 38.56357 138.81974 35120 ft 498 kts 25°
2026-05-04 21:51 38.62136 138.86774 35121 ft 498 kts 25°
2026-05-04 21:51 38.67948 138.91614 35120 ft 498 kts 25°
2026-05-04 21:52 38.73746 138.96450 35118 ft 498 kts 26°
2026-05-04 21:52 38.79581 139.01328 35121 ft 499 kts 26°
2026-05-04 21:53 38.85359 139.06167 35116 ft 499 kts 26°
2026-05-04 21:53 38.91197 139.11066 35110 ft 499 kts 26°
2026-05-04 21:54 38.97011 139.15957 35109 ft 499 kts 26°
2026-05-04 21:54 39.02782 139.20820 35099 ft 498 kts 26°
2026-05-04 21:55 39.08582 139.25715 35088 ft 498 kts 26°
2026-05-04 21:55 39.14367 139.30611 35097 ft 497 kts 26°
2026-05-04 21:56 39.20131 139.35497 35084 ft 496 kts 26°
2026-05-04 21:56 39.25902 139.40397 35083 ft 495 kts 27°
2026-05-04 21:57 39.31625 139.45269 35077 ft 495 kts 27°
2026-05-04 21:57 39.37361 139.50159 35078 ft 495 kts 27°
2026-05-04 21:58 39.43145 139.55100 35078 ft 495 kts 27°
2026-05-04 21:58 39.48842 139.59977 35076 ft 496 kts 28°
2026-05-04 21:59 39.54597 139.64916 35069 ft 496 kts 28°
2026-05-04 21:59 39.60343 139.69854 35062 ft 496 kts 28°
2026-05-04 22:00 39.66100 139.74814 35065 ft 495 kts 28°
2026-05-04 22:00 39.71805 139.79739 35059 ft 495 kts 28°
2026-05-04 22:01 39.77556 139.84714 35056 ft 494 kts 28°
2026-05-04 22:01 39.83280 139.89683 35053 ft 494 kts 29°
2026-05-04 22:02 39.88946 139.94655 35048 ft 494 kts 29°
2026-05-04 22:02 39.94645 139.99678 35046 ft 494 kts 29°
2026-05-04 22:03 40.00334 140.04697 35042 ft 494 kts 29°
2026-05-04 22:03 40.06033 140.09730 35042 ft 494 kts 29°
2026-05-04 22:04 40.11733 140.14776 35034 ft 495 kts 29°
2026-05-04 22:04 40.17423 140.19823 35034 ft 495 kts 29°
2026-05-04 22:05 40.23125 140.24891 35025 ft 495 kts 29°
2026-05-04 22:05 40.28794 140.29942 35029 ft 494 kts 29°
2026-05-04 22:06 40.34483 140.35020 35030 ft 494 kts 29°
2026-05-04 22:06 40.40170 140.40108 35033 ft 493 kts 29°
2026-05-04 22:07 40.45805 140.45157 35035 ft 493 kts 29°
2026-05-04 22:07 40.51479 140.50253 35027 ft 493 kts 30°
2026-05-04 22:08 40.57149 140.55356 35021 ft 493 kts 30°
2026-05-04 22:08 40.62776 140.60433 35020 ft 493 kts 30°
2026-05-04 22:09 40.68437 140.65549 35025 ft 493 kts 29°
2026-05-04 22:09 40.74160 140.70515 35008 ft 488 kts 22°
2026-05-04 22:10 40.80365 140.73838 35022 ft 478 kts 12°
2026-05-04 22:10 40.86609 140.76758 35019 ft 479 kts 13°
2026-05-04 22:11 40.92858 140.79847 35018 ft 480 kts 14°
2026-05-04 22:11 40.99039 140.82926 34986 ft 462 kts 13°
2026-05-04 22:11 41.02001 140.84407 34987 ft 447 kts 13°
2026-05-04 22:12 41.04867 140.85838 34984 ft 434 kts 13°
2026-05-04 22:12 41.07649 140.87223 34988 ft 420 kts 13°
2026-05-04 22:12 41.10352 140.88567 34979 ft 408 kts 12°
2026-05-04 22:12 41.12971 140.89869 34978 ft 396 kts 12°
2026-05-04 22:13 41.15511 140.91133 34814 ft 385 kts 12°
2026-05-04 22:13 41.17988 140.92361 34286 ft 385 kts 12°
2026-05-04 22:13 41.20504 140.93608 33736 ft 386 kts 12°
2026-05-04 22:13 41.23012 140.94856 33286 ft 382 kts 12°
2026-05-04 22:14 41.25492 140.96094 32900 ft 378 kts 12°
2026-05-04 22:14 41.27938 140.97319 32435 ft 374 kts 12°
2026-05-04 22:14 41.30373 140.98537 31849 ft 376 kts 13°
2026-05-04 22:14 41.32892 140.99774 30601 ft 397 kts 13°
2026-05-04 22:15 41.35561 141.01066 29264 ft 416 kts 14°
2026-05-04 22:15 41.38331 141.02419 28111 ft 431 kts 15°
2026-05-04 22:15 41.41139 141.03805 27613 ft 427 kts 15°
2026-05-04 22:15 41.43894 141.05167 27320 ft 417 kts 15°
2026-05-04 22:16 41.46592 141.06496 26939 ft 410 kts 15°
2026-05-04 22:16 41.49219 141.07793 26461 ft 406 kts 15°
2026-05-04 22:16 41.51892 141.09114 25971 ft 402 kts 15°
2026-05-04 22:16 41.54464 141.10386 25574 ft 396 kts 15°
2026-05-04 22:17 41.57029 141.11657 25158 ft 390 kts 15°
2026-05-04 22:17 41.59556 141.12910 24720 ft 385 kts 15°
2026-05-04 22:17 41.62055 141.14150 24291 ft 380 kts 15°
2026-05-04 22:17 41.64513 141.15371 23881 ft 374 kts 15°
2026-05-04 22:18 41.66942 141.16577 23442 ft 370 kts 15°
2026-05-04 22:18 41.69349 141.17776 22968 ft 366 kts 15°
2026-05-04 22:18 41.71723 141.18969 22515 ft 362 kts 15°
2026-05-04 22:18 41.74047 141.20141 22057 ft 358 kts 15°
2026-05-04 22:19 41.76369 141.21314 21585 ft 355 kts 16°
2026-05-04 22:19 41.78675 141.22480 21137 ft 351 kts 15°
2026-05-04 22:19 41.80949 141.23629 20683 ft 347 kts 15°
2026-05-04 22:19 41.83198 141.24766 20220 ft 344 kts 15°
2026-05-04 22:20 41.85425 141.25892 19751 ft 340 kts 15°
2026-05-04 22:20 41.87632 141.27009 19312 ft 337 kts 15°
2026-05-04 22:20 41.89809 141.28115 18869 ft 333 kts 15°
2026-05-04 22:20 41.91937 141.29205 18411 ft 330 kts 15°
2026-05-04 22:21 41.94073 141.30302 17963 ft 327 kts 15°
2026-05-04 22:21 41.96164 141.31483 17500 ft 327 kts 23°
2026-05-04 22:21 41.98023 141.33273 17039 ft 332 kts 37°
2026-05-04 22:21 41.99697 141.35404 16599 ft 329 kts 39°
2026-05-04 22:22 42.01330 141.37547 16133 ft 326 kts 39°
2026-05-04 22:22 42.02948 141.39668 15673 ft 324 kts 39°
2026-05-04 22:22 42.04561 141.41764 15220 ft 320 kts 39°
2026-05-04 22:22 42.06145 141.43813 14792 ft 317 kts 38°
2026-05-04 22:23 42.07729 141.45852 14365 ft 313 kts 38°
2026-05-04 22:23 42.09302 141.47874 13909 ft 311 kts 38°
2026-05-04 22:23 42.10861 141.49876 13460 ft 308 kts 38°
2026-05-04 22:23 42.12400 141.51843 13178 ft 298 kts 36°
2026-05-04 22:24 42.13493 141.52881 13067 ft 284 kts 22°
2026-05-04 22:24 42.15855 141.54249 12719 ft 271 kts 17°
2026-05-04 22:24 42.17011 141.54869 12447 ft 270 kts 17°
2026-05-04 22:24 42.19323 141.56101 11932 ft 268 kts 17°
2026-05-04 22:25 42.20490 141.56727 11681 ft 266 kts 17°
2026-05-04 22:25 42.22205 141.57652 11286 ft 265 kts 17°
2026-05-04 22:25 42.23914 141.58581 10866 ft 265 kts 18°
2026-05-04 22:25 42.25600 141.59502 10475 ft 263 kts 18°
2026-05-04 22:26 42.27273 141.60420 10127 ft 253 kts 19°
2026-05-04 22:26 42.28891 141.61312 9281 ft 255 kts 19°
2026-05-04 22:26 42.30544 141.62220 8347 ft 257 kts 20°
2026-05-04 22:26 42.32205 141.63136 7377 ft 258 kts 20°
2026-05-04 22:27 42.33873 141.64057 6397 ft 258 kts 21°
2026-05-04 22:27 42.35521 141.64967 5432 ft 259 kts 21°
2026-05-04 22:27 42.37190 141.65890 4459 ft 259 kts 21°
2026-05-04 22:27 42.38865 141.66817 3712 ft 257 kts 21°
2026-05-04 22:28 42.40452 141.67699 3542 ft 236 kts 22°
2026-05-04 22:28 42.41915 141.68510 3393 ft 218 kts 22°
2026-05-04 22:28 42.43273 141.69265 3267 ft 207 kts 22°
2026-05-04 22:28 42.44617 141.70010 3083 ft 211 kts 22°
2026-05-04 22:29 42.45990 141.70772 2804 ft 214 kts 22°
2026-05-04 22:29 42.47351 141.71527 2519 ft 212 kts 22°
2026-05-04 22:29 42.48705 141.72280 2229 ft 208 kts 22°
2026-05-04 22:29 42.49762 141.72868 2150 ft 206 kts 22°
2026-05-04 22:30 42.51129 141.73588 2049 ft 209 kts 14°
2026-05-04 22:30 42.52559 141.73685 2009 ft 200 kts 357°
2026-05-04 22:30 42.53904 141.73554 1997 ft 187 kts 354°
2026-05-04 22:30 42.55180 141.73355 1983 ft 182 kts 352°
2026-05-04 22:31 42.56430 141.73140 1994 ft 184 kts 352°
2026-05-04 22:31 42.57705 141.72914 1995 ft 185 kts 352°
2026-05-04 22:31 42.58940 141.72697 1970 ft 170 kts 352°
2026-05-04 22:31 42.60038 141.72503 1977 ft 143 kts 352°
2026-05-04 22:32 42.60949 141.72342 1981 ft 126 kts 353°
2026-05-04 22:32 42.61819 141.72187 1986 ft 127 kts 353°
2026-05-04 22:32 42.62698 141.72031 1995 ft 127 kts 353°
2026-05-04 22:32 42.63579 141.71876 1996 ft 128 kts 353°
2026-05-04 22:33 42.64453 141.71722 1996 ft 128 kts 353°
2026-05-04 22:33 42.65343 141.71566 1992 ft 129 kts 353°
2026-05-04 22:33 42.66231 141.71408 1989 ft 128 kts 353°
2026-05-04 22:33 42.67122 141.71251 1877 ft 129 kts 353°
2026-05-04 22:34 42.68006 141.71095 1711 ft 127 kts 353°
2026-05-04 22:34 42.68872 141.70942 1548 ft 125 kts 353°
2026-05-04 22:34 42.69726 141.70792 1388 ft 125 kts 353°
2026-05-04 22:34 42.70580 141.70641 1220 ft 122 kts 353°
2026-05-04 22:35 42.71418 141.70493 1060 ft 121 kts 353°
2026-05-04 22:35 42.72262 141.70344 905 ft 122 kts 353°
2026-05-04 22:35 42.73106 141.70193 706 ft 122 kts 353°
2026-05-04 22:35 42.73951 141.70043 502 ft 124 kts 352°
2026-05-04 22:36 42.74809 141.69882 353 ft 123 kts 353°
2026-05-04 22:36 42.75656 141.69739 215 ft 122 kts 353°
2026-05-04 22:36 42.76492 141.69587 92 ft 118 kts 352°
2026-05-04 22:36 42.77230 141.69453 84 ft 94 kts 352°
2026-05-04 22:37 42.77764 141.69365 67 ft 63 kts 353°
2026-05-04 22:37 42.78160 141.69275 78 ft 51 kts 340°
2026-05-04 22:37 42.78402 141.69087 79 ft 27 kts 319°
2026-05-04 22:37 42.78439 141.68884 78 ft 23 kts 265°
2026-05-04 22:38 42.78421 141.68675 78 ft 22 kts 263°
2026-05-04 22:38 42.78438 141.68474 72 ft 21 kts 291°
2026-05-04 22:38 42.78523 141.68331 73 ft 16 kts 345°
2026-05-04 22:38 42.78599 141.68306 78 ft 10 kts 302°
2026-05-04 22:39 42.78620 141.68245 78 ft 0 kts 294°